Total_Precipitation_Accumulation
0.06 0.10 0.16 0.32 0.82 1.07 1.17 0.98 0.80 0.85 0.84 0.59 0.70 0.62 0.21 0.09 0.03 0.01 0.02 0.01 0.00 0.00 0.00 0.00 0.00 0.00 0.00 0.00 0.00 0.00 0.00 0.00 0.00 0.00 0.00 0.00 0.00 0.00 0.00 0.00 0.00 0.00 0.00
0.04 0.09 0.11 0.19 0.55 0.88 1.06 1.14 0.61 0.63 0.69 0.68 0.81 1.09 0.66 0.50 0.23 0.15 0.08 0.06 0.07 0.01 0.00 0.00 0.00 0.00 0.00 0.00 0.00 0.00 0.00 0.00 0.00 0.00 0.00 0.00 0.00 0.00 0.00 0.00 0.00 0.00 0.00
0.05 0.04 0.09 0.13 0.26 0.46 0.73 1.40 0.98 0.85 0.89 0.78 0.84 0.76 0.71 0.66 0.52 0.37 0.30 0.25 0.18 0.11 0.15 0.11 0.01 0.00 0.00 0.00 0.00 0.00 0.00 0.01 0.00 0.00 0.00 0.00 0.00 0.00 0.00 0.00 0.00 0.00 0.00
0.05 0.03 0.05 0.05 0.03 0.17 0.54 1.11 0.95 0.65 1.05 1.06 0.92 0.83 0.59 0.56 0.46 0.52 0.58 0.37 0.20 0.12 0.20 0.28 0.13 0.07 0.05 0.08 0.04 0.02 0.02 0.02 0.01 0.01 0.00 0.00 0.00 0.00 0.00 0.00 0.00 0.00 0.00
0.03 0.02 0.03 0.03 0.02 0.12 0.54 0.89 0.78 0.70 1.02 1.82 1.63 1.82 1.58 0.88 0.54 0.59 0.59 0.52 0.37 0.31 0.39 0.47 0.66 0.74 0.48 0.29 0.26 0.20 0.19 0.16 0.12 0.07 0.04 0.04 0.02 0.00 0.00 0.00 0.00 0.00 0.00
0.01 0.01 0.03 0.04 0.02 0.09 0.19 0.88 0.91 0.95 1.01 1.28 1.59 1.83 1.94 1.70 1.37 0.97 0.75 0.74 0.62 0.55 0.56 0.51 0.50 0.68 0.94 0.76 0.59 0.50 0.38 0.33 0.29 0.25 0.17 0.11 0.08 0.04 0.02 0.01 0.02 0.01 0.00
0.01 0.03 0.00 0.01 0.01 0.05 0.08 0.17 0.71 0.89 0.94 0.69 0.60 0.74 0.83 0.81 0.78 0.89 0.95 0.92 0.86 0.87 0.87 0.72 0.62 0.53 0.37 0.34 0.35 0.45 0.51 0.52 0.45 0.36 0.36 0.37 0.40 0.41 0.32 0.21 0.12 0.05 0.03
0.03 0.02 0.00 0.00 0.00 0.07 0.09 0.07 0.20 0.40 0.42 0.31 0.23 0.20 0.27 0.35 0.40 0.32 0.36 0.30 0.30 0.36 0.59 0.44 0.40 0.40 0.37 0.33 0.32 0.34 0.39 0.47 0.52 0.59 0.75 0.77 0.74 0.77 0.70 0.57 0.46 0.31 0.19
0.02 0.01 0.00 0.00 0.00 0.05 0.10 0.08 0.06 0.11 0.14 0.16 0.15 0.13 0.15 0.15 0.13 0.14 0.16 0.19 0.16 0.15 0.11 0.08 0.07 0.06 0.06 0.05 0.08 0.12 0.16 0.20 0.22 0.23 0.29 0.34 0.34 0.34 0.36 0.41 0.40 0.42 0.23
0.01 0.00 0.00 0.00 0.00 0.07 0.08 0.08 0.07 0.06 0.08 0.09 0.09 0.10 0.11 0.08 0.07 0.02 0.01 0.01 0.02 0.01 0.00 0.00 0.00 0.00 0.00 0.00 0.00 0.00 0.01 0.01 0.01 0.02 0.03 0.05 0.11 0.22 0.28 0.31 0.31 0.38 0.37
0.00 0.00 0.00 0.01 0.01 0.09 0.06 0.04 0.03 0.04 0.05 0.05 0.05 0.08 0.06 0.02 0.01 0.00 0.00 0.01 0.04 0.04 0.04 0.03 0.04 0.01 0.00 0.00 0.01 0.02 0.03 0.03 0.02 0.03 0.03 0.03 0.02 0.02 0.03 0.06 0.11 0.15 0.16
0.00 0.00 0.00 0.00 0.03 0.03 0.01 0.01 0.02 0.02 0.01 0.02 0.03 0.02 0.01 0.01 0.01 0.01 0.00 0.01 0.02 0.02 0.01 0.01 0.01 0.01 0.00 0.00 0.00 0.01 0.04 0.04 0.04 0.02 0.02 0.01 0.00 0.00 0.00 0.00 0.00 0.00 0.01
0.00 0.00 0.00 0.00 0.01 0.02 0.01 0.00 0.01 0.01 0.01 0.01 0.01 0.01 0.01 0.00 0.00 0.00 0.00 0.00 0.00 0.00 0.00 0.01 0.01 0.01 0.01 0.00 0.00 0.00 0.01 0.01 0.01 0.00 0.00 0.00 0.00 0.00 0.00 0.00 0.00 0.00 0.01
0.00 0.00 0.00 0.00 0.00 0.01 0.00 0.00 0.01 0.01 0.02 0.02 0.01 0.01 0.00 0.00 0.00 0.00 0.00 0.00 0.00 0.00 0.00 0.00 0.00 0.00 0.00 0.00 0.00 0.00 0.00 0.00 0.00 0.00 0.00 0.00 0.00 0.00 0.00 0.00 0.00 0.00 0.02
0.00 0.00 0.00 0.00 0.00 0.00 0.00 0.00 0.00 0.00 0.00 0.00 0.01 0.01 0.00 0.00 0.00 0.00 0.00 0.00 0.00 0.00 0.00 0.00 0.00 0.00 0.00 0.00 0.00 0.00 0.00 0.00 0.00 0.00 0.00 0.00 0.00 0.00 0.00 0.00 0.00 0.00 0.01
0.00 0.00 0.00 0.00 0.01 0.00 0.00 0.00 0.00 0.00 0.00 0.00 0.00 0.00 0.00 0.00 0.00 0.00 0.00 0.00 0.00 0.00 0.00 0.00 0.00 0.00 0.00 0.00 0.00 0.00 0.00 0.00 0.00 0.00 0.00 0.00 0.00 0.00 0.00 0.01 0.01 0.02 0.01
0.00 0.00 0.00 0.00 0.00 0.00 0.00 0.00 0.00 0.00 0.00 0.00 0.00 0.00 0.00 0.00 0.00 0.00 0.00 0.00 0.00 0.00 0.00 0.00 0.00 0.00 0.00 0.00 0.00 0.00 0.00 0.00 0.00 0.00 0.00 0.00 0.00 0.00 0.00 0.01 0.01 0.01 0.03
0.00 0.00 0.00 0.00 0.00 0.00 0.00 0.00 0.00 0.00 0.00 0.00 0.00 0.00 0.00 0.00 0.00 0.00 0.00 0.00 0.00 0.00 0.00 0.00 0.00 0.00 0.00 0.00 0.00 0.00 0.00 0.00 0.00 0.00 0.00 0.00 0.00 0.01 0.00 0.00 0.00 0.00 0.01
0.00 0.00 0.00 0.00 0.00 0.00 0.00 0.00 0.00 0.00 0.00 0.00 0.00 0.00 0.00 0.00 0.00 0.00 0.00 0.00 0.00 0.00 0.00 0.00 0.00 0.00 0.00 0.00 0.00 0.00 0.00 0.00 0.00 0.00 0.00 0.00 0.00 0.02 0.01 0.00 0.00 0.00 0.00
0.00 0.00 0.00 0.00 0.00 0.00 0.00 0.00 0.00 0.00 0.00 0.00 0.00 0.00 0.00 0.00 0.00 0.00 0.00 0.00 0.00 0.00 0.00 0.00 0.00 0.00 0.00 0.00 0.00 0.00 0.00 0.00 0.00 0.00 0.00 0.01 0.00 0.01 0.01 0.00 0.00 0.00 0.00
0.00 0.00 0.00 0.00 0.00 0.00 0.00 0.00 0.00 0.00 0.00 0.00 0.00 0.00 0.00 0.00 0.00 0.00 0.00 0.00 0.00 0.00 0.00 0.00 0.00 0.00 0.00 0.00 0.00 0.00 0.00 0.00 0.00 0.00 0.00 0.01 0.02 0.01 0.00 0.00 0.00 0.00 0.00
0.00 0.00 0.00 0.00 0.00 0.00 0.00 0.00 0.00 0.00 0.00 0.00 0.00 0.00 0.00 0.00 0.00 0.00 0.00 0.00 0.00 0.00 0.00 0.00 0.00 0.00 0.00 0.00 0.00 0.00 0.00 0.00 0.00 0.00 0.00 0.00 0.01 0.01 0.00 0.00 0.00 0.00 0.00
0.00 0.00 0.00 0.00 0.00 0.00 0.00 0.00 0.00 0.00 0.00 0.00 0.00 0.00 0.00 0.00 0.00 0.00 0.00 0.00 0.00 0.00 0.00 0.00 0.00 0.00 0.00 0.00 0.01 0.00 0.00 0.00 0.00 0.00 0.00 0.00 0.00 0.00 0.00 0.00 0.00 0.00 0.00
0.00 0.00 0.00 0.00 0.00 0.00 0.00 0.00 0.00 0.00 0.00 0.00 0.00 0.00 0.00 0.00 0.00 0.00 0.00 0.00 0.00 0.00 0.00 0.00 0.00 0.00 0.00 0.00 0.00 0.00 0.01 0.00 0.00 0.00 0.00 0.00 0.00 0.00 0.00 0.00 0.00 0.00 0.00
0.00 0.00 0.00 0.00 0.00 0.00 0.00 0.00 0.00 0.00 0.00 0.00 0.00 0.00 0.00 0.00 0.00 0.00 0.00 0.00 0.00 0.00 0.00 0.00 0.00 0.00 0.00 0.01 0.03 0.00 0.00 0.00 0.00 0.00 0.00 0.00 0.00 0.00 0.00 0.00 0.00 0.00 0.00
0.00 0.00 0.00 0.00 0.00 0.00 0.00 0.00 0.00 0.00 0.00 0.00 0.00 0.00 0.00 0.00 0.00 0.00 0.00 0.00 0.00 0.00 0.00 0.00 0.00 0.00 0.00 0.01 0.01 0.00 0.00 0.00 0.00 0.00 0.00 0.00 0.00 0.00 0.00 0.00 0.00 0.00 0.00